Regional Weather Roundup
Issued by NWS

Home | Current Version | Previous Version | Graphics & Text | Print | Product List | Glossary On
Versions: 1 2 3 4 5 6 7 8 9 10 11 12 13 14 15 16 17 18 19 20 21 22 23 24 25 26 27 28 29 30 31 32 33 34 35 36 37 38 39 40 41 42 43 44 45 46 47 48 49 50
000
ASUS43 KMPX 040510
RWRMN
WEATHER ROUNDUP FOR MINNESOTA
NATIONAL WEATHER SERVICE TWIN CITIES/CHANHASSEN MN
1100 PM CST TUE MAR 03 2015


NOTE: "FAIR" INDICATES FEW OR NO CLOUDS BELOW 12,000 FEET WITH NO
SIGNIFICANT WEATHER AND/OR OBSTRUCTIONS TO VISIBILITY. N/A MEANS
CURRENT SKY AND/OR WEATHER CONDITIONS ARE NOT AVAILABLE.

MNZ060>063-068>070-040600-
   Twin Cities Metro

CITY           SKY/WX    TMP DP  RH WIND       PRES   REMARKS
TWIN CITIES    PTCLDY     8  -2  63 NW16G24   30.00R WCI -10
ST PAUL        CLEAR      9   0  67 NW16G23   30.01R WCI  -8
CRYSTAL        CLEAR      8  -2  63 W13       30.00R WCI  -8
BLAINE         PTCLDY     9   1  72 W20       29.98R WCI -11
LAKEVILLE      CLEAR      7   0  72 NW14G23   29.99S WCI -10
EDEN PRAIRIE   CLEAR      8  -2  63 NW16G22   30.00R WCI -10
SOUTH ST PAUL  CLEAR     10   0  62 NW12      30.00S WCI  -5
LAKE ELMO      FAIR      10   1  67 W9G16     29.98S WCI  -2
$$
MNZ001>005-007-008-013>017-022>024-027-028-040600-
   Northwest Minnesota

CITY           SKY/WX    TMP DP  RH WIND       PRES   REMARKS
BEMIDJI        CLEAR     -3  -9  74 W12       29.92S WCI -21
HALLOCK        CLEAR     -4 -11  71 W2        29.98R
ROSEAU         CLEAR     -4 -11  71 W8        29.93R WCI -19
WARROAD        PTCLDY    -6  -9  84 W7        29.91R HAZE    WCI -20
THIEF RVR FALL CLOUDY     0  -6  78 W8        29.97R WCI -15
CROOKSTON      PTCLDY     1  -8  66 NW10      30.03R WCI -14
FOSSTON        CLEAR     -4 -11  71 W14       29.97S WCI -24
DETROIT LAKES  CLEAR      1  -6  71 NW15G23   30.00R WCI -18
MOORHEAD       FAIR       1  -6  71 NW12      30.07S WCI -15
PARK RAPIDS    PTCLDY    -1  -8  72 NW14      29.93R WCI -20
MAHNOMEN       FAIR      -2  -8  76 W10       29.99R WCI -18
$$
MNZ006-009>011-018-025>026-040600-
   North Central Minnesota

CITY           SKY/WX    TMP DP  RH WIND       PRES   REMARKS
BAUDETTE       PTCLDY    -3  -9  75 W10       29.88R WCI -20
FLAG ISLAND    CLEAR     -6 -15  65 NW13      29.88S WCI -25
INTL FALLS     PTCLDY    -2 -10  69 W9        29.85R WCI -18
WASKISH        CLEAR     -4  -9  77 W9        29.90S WCI -20
BIG FORK       CLEAR      0  -9  65 W6        29.88R WCI -12
LONGVILLE      MOCLDY     0  -9  65 W12G20    29.93R WCI -18
GRAND RAPIDS   MOCLDY     0  -9  65 NW13      29.87R WCI -18
CRANE LAKE     MOCLDY     0  -8  71 NW7       29.85S HAZE    WCI -13
ORR            CLEAR     -2  -9  71 W9G16     29.81R WCI -18
COOK           CLEAR      0  -8  71 W9        29.83R WCI -16
WALKER         CLOUDY    -2 -12  64 W10G23    29.93R WCI -19
$$
MNZ012-019>021-037-040600-
   Northeast Minnesota

CITY           SKY/WX    TMP DP  RH WIND       PRES   REMARKS
DULUTH         MOCLDY     3  -7  63 W18G25    29.82R WCI -17
ELY            PTCLDY     0  -9  65 W10G18    29.78R WCI -17
HIBBING        CLEAR     -1 -12  59 W8G22     29.85R WCI -15
EVELETH        FAIR       3  -6  66 W12       29.85R WCI -13
DULUTH HARBOR  CLEAR      7  -2  66 W13G18    29.92R WCI  -9
TWO HARBORS    CLEAR      7  -6  56 W8G17     29.81R WCI  -6
SILVER BAY     FAIR       7  -8  51 W7G17     29.78R WCI  -5
GRAND MARAIS     N/A      8  -3  61 SW13G21   29.77R WCI  -8
G MARAIS ARPRT CLEAR      0 -11  60 W17G31    29.64R WCI -21
$$
MNZ029>031-032-039>041-046>048-054>057-064-040600-
   West Central Minnesota

CITY           SKY/WX    TMP DP  RH WIND       PRES   REMARKS
FERGUS FALLS   CLEAR      0  -9  65 NW14      30.08S WCI -19
WHEATON        CLEAR      0  -8  71 W10       30.09S WCI -17
MORRIS         CLEAR      1  -8  66 NW13      30.05R WCI -16
ALEXANDRIA     MOCLDY     1  -7  68 NW20G25   29.99R WCI -20
ELBOW LAKE     FAIR       1  -7  71 NW16      30.03R WCI -19
WADENA         PTCLDY     0  -8  71 NW15      29.97R WCI -20
GLENWOOD       MOCLDY     1  -2  85 W15G21    30.01R WCI -18
APPLETON       CLEAR      1  -6  71 W13       30.10R WCI -16
BENSON         CLEAR      3  -6  66 NW14      30.07R WCI -15
ORTONVILLE       N/A      3  -8  60 W9        30.09R WCI -11
MADISON        FAIR       3  -6  66 NW10      30.10S WCI -12
WILLMAR        FAIR       5  -2  72 NW13      30.04F WCI -12
$$
MNZ033>034-036-042>043-049>051-058-059-040600-
   Central Minnesota

CITY           SKY/WX    TMP DP  RH WIND       PRES   REMARKS
ST CLOUD       PTCLDY     4  -5  66 NW15      29.99R WCI -14
SAUK CENTRE    FAIR       1  -7  69 W13       30.00R WCI -16
PAYNESVILLE    CLEAR      0  -7  72 W13       30.03R WCI -18
AITKIN         CLEAR      3  -6  66 W3        29.91R
PINE RIVER     PTCLDY     1  -6  71 W6        29.96R WCI -10
BRAINERD       CLEAR      2  -6  69 NW15G21   29.94R WCI -17
STAPLES        CLEAR      0  -9  65 NW13      29.96S WCI -18
LITTLE FALLS   CLEAR      3  -6  66 NW10G17   29.98S WCI -12
LITCHFIELD     CLEAR      7  -4  61 NW13G25   30.02R WCI  -9
BUFFALO        CLEAR      6  -2  67 W10G23    30.02R WCI  -8
MAPLE LAKE     CLEAR      6  -1  71 W12G21    30.01R WCI  -9
$$
MNZ037-044-045-052-053-040600-
   East Central Minnesota

CITY           SKY/WX    TMP DP  RH WIND       PRES   REMARKS
PRINCETON      CLEAR      7  -2  66 W10G17    29.98R WCI  -8
MORA           CLEAR      7  -2  66 NW10G18   29.96S WCI  -8
CAMBRIDGE      CLEAR      7  -4  61 W10G16    29.96R WCI  -8
RUSH CITY      PTCLDY     4  -4  69 W6        29.96S WCI  -7
MOOSE LAKE     CLEAR      3  -8  60 NW7       29.90R WCI  -9
HINCKLEY       FAIR       7  -4  61 W5        29.93S WCI  -2
CLOQUET        CLEAR      1  -9  60 W16G23    29.86R WCI -18
MCGREGOR       CLEAR      3  -6  66 NW12G21   29.92R WCI -13
$$
MNZ071>073-080-081-089-090-097-098-040600-
   Southwest Minnesota

CITY           SKY/WX    TMP DP  RH WIND       PRES   REMARKS
MONTEVIDEO     CLEAR      3   0  85 N9G16     30.09S WCI -11
GRANITE FALLS  CLEAR      5  -4  68 W14       30.09S WCI -13
CANBY          CLEAR      4  -5  65 NW12      30.10S WCI -12
MARSHALL       FAIR       3  -6  66 NW14      30.08S WCI -15
REDWOOD FALLS  CLEAR      7  -4  60 NW14G24   30.06R WCI -10
OLIVIA         CLEAR      5   0  78 NW17G24   30.05R WCI -14
PIPESTONE      PTCLDY     5  -2  72 NW10      30.04S WCI -10
WINDOM         PTCLDY     9   1  72 NW14G22   30.05R WCI  -8
WORTHINGTON    CLEAR      7  -2  66 NW14      30.07R WCI -10
JACKSON        PTCLDY     9   1  72 NW12      30.05R WCI  -6
TRACY          CLEAR      7  -1  70 NW14      30.06S WCI -10
SLAYTON        CLEAR      6  -5  61 NW15G21   30.04S WCI -12
$$
MNZ065>067-074>077-082>085-091>093-040600-
   South Central Minnesota

CITY           SKY/WX    TMP DP  RH WIND       PRES   REMARKS
MANKATO        CLEAR      9   0  66 NW16G22   30.03R WCI  -9
NEW ULM        CLEAR      7  -2  66 NW20G25   30.06R WCI -13
ST JAMES       CLEAR      9   1  72 W13       30.08R WCI  -7
FAIRMONT       CLEAR      9   1  72 NW13G18   30.04R WCI  -7
GLENCOE        PTCLDY     7   0  72 W13       30.03R WCI  -9
FARIBAULT      CLEAR      9   1  72 W13       30.01R WCI  -7
OWATONNA       CLEAR      9   0  66 NW15G21   30.00R WCI  -8
WASECA         CLEAR      9   1  72 NW17G26   30.03R WCI -10
ALBERT LEA     CLEAR      9   1  72 NW15G21   30.01R WCI  -8
$$
MNZ078>079-086>088-094>096-040600-
   Southeast Minnesota

CITY           SKY/WX    TMP DP  RH WIND       PRES   REMARKS
ROCHESTER      CLEAR      7   1  76 NW18      29.96R WCI -12
RED WING       CLEAR     10   0  61 NW9       29.98R WCI  -2
STANTON        CLEAR     10   1  68 NW15      29.99R WCI  -7
DODGE CENTER   PTCLDY     9   1  72 NW16      29.96R WCI  -9
WINONA         CLEAR     14   5  67 NW14      29.98R WCI  -1
AUSTIN         CLEAR      9   1  72 NW15G22   29.99R WCI  -8
PRESTON        CLEAR      8   2  75 NW17G26   29.96R WCI -10
$$
ABBREVIATIONS USED IN REMARKS
   TC - TEMPERATURES IN CELSIUS
  WCI - WIND CHILL INDEX
   HX - HEAT INDEX
  VSB - VISIBILITY
$$



USA.gov is the U.S. government's official web portal to all federal, state and local government web resources and services.